| time (UTC) | temp F | wind direction | speed MPH | gust MPH | rain 1hr in | rain 24hr in | rain mn in | humidity % | barometer mb |
| 20260506081604 | 20 | 283 | 3.0 | 6.0 | 0.00 | 0.00 | 0.00 | 67 | 1019.1 |
| 20260506073049 | 21 | 293 | 2.0 | 5.0 | 0.00 | 0.00 | 0.00 | 65 | 1019.3 |
| 20260506071551 | 22 | 303 | 1.0 | 5.0 | 0.00 | 0.00 | 0.00 | 64 | 1019.3 |
| 20260506061539 | 23 | 322 | 4.0 | 6.0 | 0.00 | 0.00 | 0.00 | 59 | 1019.5 |
| 20260506044521 | 28 | 314 | 2.0 | 4.0 | 0.00 | 0.00 | 0.00 | 53 | 1019.6 |
| 20260506043016 | 28 | 314 | 1.0 | 3.0 | 0.00 | 0.00 | 0.00 | 51 | 1019.7 |
| 20260506041512 | 29 | 314 | 1.0 | 3.0 | 0.00 | 0.00 | 0.00 | 50 | 1019.7 |
| 20260506040008 | 31 | 314 | 2.0 | 4.0 | 0.00 | 0.00 | 0.00 | 48 | 1019.7 |
| 20260506034506 | 34 | 18 | 4.0 | 6.0 | 0.00 | 0.00 | 0.00 | 45 | 1019.6 |
| 20260506033100 | 35 | 30 | 4.0 | 6.0 | 0.00 | 0.00 | 0.00 | 44 | 1019.5 |
| 20260506031657 | 36 | 25 | 4.0 | 6.0 | 0.00 | 0.00 | 0.00 | 43 | 1019.5 |
| 20260506030054 | 37 | 25 | 4.0 | 6.0 | 0.00 | 0.00 | 0.00 | 41 | 1019.4 |
| 20260506024558 | 40 | 9 | 3.0 | 6.0 | 0.00 | 0.00 | 0.00 | 39 | 1019.3 |
| 20260506023044 | 43 | 355 | 6.0 | 10.0 | 0.00 | 0.00 | 0.00 | 37 | 1019.3 |
| 20260506021541 | 44 | 12 | 9.0 | 14.0 | 0.00 | 0.00 | 0.00 | 36 | 1019.3 |
| 20260506020041 | 45 | 360 | 12.0 | 18.0 | 0.00 | 0.00 | 0.00 | 35 | 1019.2 |
| 20260506014537 | 45 | 13 | 12.0 | 18.0 | 0.00 | 0.00 | 0.00 | 35 | 1019.2 |
| 20260506013137 | 46 | 350 | 12.0 | 16.0 | 0.00 | 0.00 | 0.00 | 35 | 1019.1 |
| 20260506011559 | 46 | 5 | 14.0 | 19.0 | 0.00 | 0.00 | 0.00 | 34 | 1019.1 |
| 20260506010033 | 47 | 19 | 12.0 | 19.0 | 0.00 | 0.00 | 0.00 | 33 | 1019.0 |
| 20260506004540 | 47 | 311 | 13.0 | 20.0 | 0.00 | 0.00 | 0.00 | 33 | 1019.0 |
| 20260506003031 | 48 | 360 | 13.0 | 18.0 | 0.00 | 0.00 | 0.00 | 32 | 1018.9 |
| 20260506001530 | 47 | 23 | 14.0 | 18.0 | 0.00 | 0.00 | 0.00 | 35 | 1019.0 |
| 20260506000045 | 48 | 338 | 10.0 | 20.0 | 0.00 | 0.00 | 0.00 | 33 | 1019.0 |
| 20260505234539 | 48 | 331 | 14.0 | 21.0 | 0.00 | 0.00 | 0.00 | 33 | 1018.9 |
| 20260505233028 | 49 | 360 | 13.0 | 19.0 | 0.00 | 0.00 | 0.00 | 34 | 1018.9 |
| 20260505231526 | 48 | 9 | 14.0 | 24.0 | 0.00 | 0.00 | 0.00 | 34 | 1018.9 |
| 20260505230047 | 47 | 17 | 14.0 | 22.0 | 0.00 | 0.00 | 0.00 | 34 | 1018.8 |
| 20260505224535 | 49 | 355 | 12.0 | 20.0 | 0.00 | 0.00 | 0.00 | 34 | 1018.9 |
| 20260505223025 | 49 | 360 | 14.0 | 20.0 | 0.00 | 0.00 | 0.00 | 32 | 1018.8 |
| 20260505221522 | 49 | 355 | 15.0 | 25.0 | 0.00 | 0.00 | 0.00 | 33 | 1018.7 |
| 20260505220021 | 49 | 288 | 10.0 | 25.0 | 0.00 | 0.00 | 0.00 | 31 | 1018.8 |
| 20260505214621 | 49 | 360 | 13.0 | 23.0 | 0.00 | 0.00 | 0.00 | 35 | 1018.8 |
| 20260505213023 | 48 | 355 | 10.0 | 31.0 | 0.00 | 0.00 | 0.00 | 34 | 1018.9 |
| 20260505211526 | 48 | 281 | 11.0 | 21.0 | 0.00 | 0.00 | 0.00 | 34 | 1019.0 |
| 20260505210017 | 49 | 338 | 10.0 | 19.0 | 0.00 | 0.00 | 0.00 | 35 | 1019.1 |
| 20260505204516 | 49 | 325 | 14.0 | 24.0 | 0.00 | 0.00 | 0.00 | 34 | 1019.2 |
| 20260505203015 | 49 | 336 | 9.0 | 20.0 | 0.00 | 0.00 | 0.00 | 35 | 1019.3 |
| 20260505201513 | 48 | 324 | 11.0 | 23.0 | 0.00 | 0.00 | 0.00 | 36 | 1019.3 |
| 20260505200011 | 48 | 336 | 9.0 | 23.0 | 0.00 | 0.00 | 0.00 | 36 | 1019.3 |
| 20260505194512 | 48 | 299 | 12.0 | 17.0 | 0.00 | 0.00 | 0.00 | 36 | 1019.3 |
| 20260505193010 | 48 | 310 | 14.0 | 21.0 | 0.00 | 0.00 | 0.00 | 36 | 1019.3 |
| 20260505191507 | 48 | 270 | 11.0 | 18.0 | 0.00 | 0.00 | 0.00 | 37 | 1019.3 |
| 20260505190004 | 47 | 342 | 10.0 | 22.0 | 0.00 | 0.00 | 0.00 | 37 | 1019.3 |
| 20260505184505 | 48 | 322 | 12.0 | 21.0 | 0.00 | 0.00 | 0.00 | 37 | 1019.3 |
| 20260505174533 | 45 | 342 | 10.0 | 21.0 | 0.00 | 0.00 | 0.00 | 43 | 1019.5 |
| 20260505173029 | 45 | 360 | 9.0 | 16.0 | 0.00 | 0.00 | 0.00 | 45 | 1019.6 |
| 20260505171528 | 45 | 331 | 12.0 | 18.0 | 0.00 | 0.00 | 0.00 | 42 | 1019.6 |
| 20260505170024 | 43 | 350 | 10.0 | 15.0 | 0.00 | 0.00 | 0.00 | 46 | 1019.7 |
| 20260505164523 | 44 | 344 | 8.0 | 18.0 | 0.00 | 0.00 | 0.00 | 48 | 1019.7 |
| 20260505163020 | 42 | 346 | 10.0 | 17.0 | 0.00 | 0.00 | 0.00 | 52 | 1019.8 |
| 20260505161514 | 41 | 323 | 6.0 | 11.0 | 0.00 | 0.00 | 0.00 | 52 | 1019.8 |
| 20260505153009 | 39 | 316 | 4.0 | 10.0 | 0.00 | 0.00 | 0.00 | 61 | 1019.9 |
| 20260505151507 | 39 | 323 | 6.0 | 11.0 | 0.00 | 0.00 | 0.00 | 63 | 1020.0 |
| 20260505124552 | 33 | 326 | 3.0 | 5.0 | 0.00 | 0.00 | 0.00 | 74 | 1019.3 |
| 20260505123053 | 31 | 321 | 3.0 | 7.0 | 0.00 | 0.00 | 0.00 | 74 | 1019.2 |
| 20260505121610 | 32 | 323 | 3.0 | 5.0 | 0.00 | 0.00 | 0.00 | 73 | 1019.1 |
| 20260505120033 | 32 | 333 | 3.0 | 6.0 | 0.00 | 0.00 | 0.00 | 69 | 1019.1 |
| 20260505114533 | 33 | 355 | 5.0 | 8.0 | 0.00 | 0.00 | 0.00 | 67 | 1019.1 |
| 20260505113030 | 34 | 336 | 5.0 | 8.0 | 0.00 | 0.00 | 0.00 | 65 | 1019.0 |
| 20260505111534 | 35 | 355 | 4.0 | 9.0 | 0.00 | 0.00 | 0.00 | 62 | 1018.9 |
| 20260505110123 | 36 | 350 | 5.0 | 11.0 | 0.00 | 0.00 | 0.00 | 59 | 1019.0 |
| 20260505101517 | 37 | 343 | 5.0 | 10.0 | 0.00 | 0.00 | 0.00 | 56 | 1018.7 |
| 20260505100021 | 38 | 350 | 8.0 | 11.0 | 0.00 | 0.00 | 0.00 | 54 | 1018.5 |
| 20260505094515 | 37 | 345 | 3.0 | 5.0 | 0.00 | 0.00 | 0.00 | 57 | 1018.5 |
| 20260505093024 | 38 | 347 | 5.0 | 9.0 | 0.00 | 0.00 | 0.00 | 56 | 1018.5 |
| 20260505091516 | 37 | 355 | 5.0 | 8.0 | 0.00 | 0.00 | 0.00 | 56 | 1018.5 |
| 20260505090012 | 38 | 19 | 6.0 | 8.0 | 0.00 | 0.00 | 0.00 | 56 | 1018.4 |
| 20260505084511 | 38 | 5 | 5.0 | 6.0 | 0.00 | 0.00 | 0.00 | 55 | 1018.4 |
| 20260505083011 | 39 | 10 | 4.0 | 7.0 | 0.00 | 0.00 | 0.00 | 54 | 1018.4 |